FLOCK 3R-3 (43734 NORAD) Tracking and Keplerian Element Data

This shows tracking and keplerian element data for the satellite.

Feedback or suggestion? Click here.




ElementValue
Catalog43734
NameFLOCK 3R-3
Epoch Orbit457
Epoch Day363.1927476
Epoch Year2018
RAAN68.2457
Inclination97.4819
Eccentricity0.0020695
Argument of Perigee219.3678
Mean Anonmoly213.0322
Mean Motion15.26775439
Decay Rate6.49E-06
L11 43734U 18096R 18363.19274760 .00000649 00000-0 27410-4 0 9999
L22 43734 97.4819 68.2457 0020695 219.3678 213.0322 15.26775439 4579

Live tracking and technical data element details for FLOCK 3R-3 (NORAD 43734). FLOCK 3R-3 can be tracked NOW for your location showing map with azimuth and elevation plus other details from your city location.

Track the satellite on the map from your city or location and see movement details for azimuth, elevation, latitude, longitude, range, height, and movement on the map or in text.







IsCatalogInMostPopularTable: catalog: 43734, numindb: 30
Update: records affected: 1



GetName: 43734 FLOCK 3R-3

Hit Count: updated at: Wed, 23 Jan 2019 03:42:14 GMT